[[{"header":{"parameterUnit":"m.s-1","parameterCategory":1,"la1":30.2991,"la2":30.254,"lo1":-89.0895,"lo2":-89.0444,"dy":0.0017,"dx":0.0017,"nx":28,"ny":28,"refTime":"2023-04-29T21:00:00:Z","depth":0,"parameterNumber":2,"parameterNumberName":"U-component_of_WINDS"},"data":[0,0,0,0,0,0,0,0,0,0,0,0,0,0,0,0,0,0,0,0,0,0,0,0,0,0,0,0,0,0,0,0,0,0,0,0,0,0,0,0,0,0,0,0,0,0,0,0,0,0,0,0,0,0,0,0,0,0,7.8048,7.8048,0,7.8106,7.8106,7.8107,7.7947,7.7942,7.7937,7.7932,7.7988,7.7994,7.8,0,0,0,0,0,0,0,0,0,0,0,0,0,7.7799,7.7804,7.8048,7.8049,7.8049,7.8105,7.8106,7.8107,7.7948,7.7942,7.7936,7.793,7.7986,7.7993,7.8001,0,0,0,0,0,0,0,0,0,0,0,0,0,7.7887,7.7806,7.8048,7.7977,7.7971,7.8105,7.8106,7.8107,7.7949,7.7942,7.7934,7.7927,7.7984,7.7993,7.8002,7.8206,0,0,7.803,7.8034,0,0,0,0,0,0,0,0,7.7882,7.7896,7.7986,7.7982,7.7976,7.8011,7.8039,7.814,7.7951,7.7957,7.7932,7.7924,7.8002,7.8009,7.8036,7.8209,7.8211,7.803,7.8036,7.804,7.8042,0,0,0,0,0,0,0,7.7876,7.7893,7.807,7.7988,7.7981,7.7942,7.7946,7.8057,7.802,7.7956,7.7945,7.7954,7.7997,7.8028,7.8036,7.8212,7.803,7.8038,7.8044,7.8047,7.8559,7.8567,0,0,0,0,0,0,7.7879,7.7889,7.8069,7.8072,7.791,7.7952,7.7957,7.8007,7.8019,7.8013,7.796,7.7946,7.8016,7.8026,7.8037,7.8279,7.804,7.8048,7.8054,7.8551,7.8561,7.857,0,0,0,0,0,0,7.7875,7.7897,7.8066,7.7977,7.7996,7.7964,7.8022,7.8012,7.8042,7.8022,7.8014,7.7998,7.801,7.8024,7.8166,7.8279,7.8052,7.8061,7.8541,7.8554,7.8565,7.8765,0,0,0,0,0,0,7.7868,7.7896,7.7974,7.798,7.8001,7.8195,7.8029,7.8019,7.8059,7.8041,7.8055,7.805,7.8005,7.8154,7.8176,7.8288,7.8068,7.8531,7.8547,7.8561,7.8748,7.8782,7.8811,0,0,0,0,0,7.786,7.8026,7.7978,7.8001,7.8098,7.8202,7.8214,7.816,7.8069,7.8146,7.8134,7.805,7.8264,7.817,7.8193,7.8309,7.8524,7.8543,7.856,7.8733,7.8775,7.8811,0,0,0,0,0,0,7.8031,7.8025,7.7972,7.8146,7.8176,7.8175,7.8271,7.8205,7.8261,7.8242,7.8171,7.8176,7.8331,7.8334,7.823,7.8509,7.8378,7.8402,7.8502,7.8541,7.8573,7.8568,7.8076,0,0,0,0,0,7.8089,7.8176,7.8165,7.8319,7.8338,7.8303,7.8346,7.8302,7.833,7.8341,7.8338,7.8368,7.8442,7.8491,7.8558,7.8748,7.8749,7.884,7.8872,7.8898,7.8919,7.9022,7.9062,7.863,7.8629,7.8629,0,0,7.821,7.8217,7.8275,7.8354,7.8372,7.8463,7.8314,7.8415,7.8482,7.8356,7.849,7.8491,7.8518,7.8686,7.876,7.8693,7.9039,7.8921,7.8942,7.8949,7.9045,7.9086,7.9122,7.8642,7.864,7.8638,0,0,7.8476,7.849,7.8621,7.8644,7.8674,7.865,7.8682,7.8692,7.8688,7.8822,7.8731,7.8809,7.8937,7.8962,7.8991,7.9272,7.9197,7.9295,7.9461,7.9562,7.9597,7.9626,7.9728,7.9765,7.9317,7.9317,7.9318,0,7.8621,7.8755,7.8696,7.8806,7.8844,7.8737,7.887,7.8893,7.8944,7.8972,7.8898,7.9059,7.907,7.9243,7.9313,7.9339,7.9374,7.9293,7.9597,7.9626,7.9653,7.9749,7.9787,7.9329,7.9328,7.9327,7.9325,0,7.8933,7.9028,7.913,7.9184,7.9234,7.9354,7.9314,7.9371,7.9325,7.9309,7.9449,7.9459,7.9528,7.9565,7.9519,7.9733,7.9692,7.9608,7.9474,7.9707,7.9796,7.9832,7.9346,7.9342,7.9338,7.9335,0,0,7.9306,7.9329,7.9368,7.9393,7.942,7.9492,7.9608,7.9677,7.9728,7.9767,7.9864,7.9977,7.9901,7.9935,7.9891,7.998,8.0204,7.9886,7.9885,7.9945,8.0442,8.0505,8.0549,8.0156,8.0162,8.0168,8.044,0,7.9569,7.9771,7.9723,7.9922,8.001,7.9911,8.0013,8.0041,8.0031,8.0103,8.0091,8.0173,8.0066,8.0086,8.017,8.016,8.0303,8.0139,8.0245,8.0249,8.0241,8.0595,8.0661,8.0918,8.0475,8.048,8.0485,0,7.9903,7.9958,8.0167,8.0183,8.0218,8.0311,8.0372,8.0442,8.0473,8.0459,8.05,8.0439,8.0555,8.0422,8.0581,8.0471,8.0511,8.0513,8.0522,8.0529,8.0381,8.0613,8.0998,8.1037,8.0539,8.0534,8.053,0,8.0156,8.0282,8.0424,8.0448,8.047,8.0538,8.055,8.0574,8.0619,8.0672,8.0701,8.0767,8.0803,8.0855,8.0815,8.0721,8.0981,8.0844,8.0973,8.0975,8.1031,8.1028,8.143,8.1058,8.1058,8.1057,8.1056,0,8.0455,8.0587,8.0538,8.0625,8.0771,8.0716,8.0861,8.0861,8.0884,8.097,8.0888,8.097,8.0912,8.0989,8.0958,8.1096,8.1112,8.1105,8.1095,8.1112,8.1114,8.1137,8.1119,8.1067,8.1065,8.1063,8.1061,0,8.0761,8.0734,8.0882,8.0893,8.0899,8.1006,8.1014,8.1096,8.1081,8.1191,8.1213,8.1189,8.1276,8.1242,8.1333,8.1313,8.1489,8.1456,8.148,8.1471,8.1603,8.1592,8.2034,8.2089,8.1682,8.1686,8.1689,0,8.0954,8.1054,8.1076,8.1129,8.1148,8.1234,8.1281,8.1231,8.1283,8.1328,8.1405,8.1485,8.1547,8.1691,8.1681,8.1752,8.172,8.187,8.1729,8.1745,8.1723,8.1718,8.1728,8.1898,8.1903,8.1906,8.191,0,8.13,8.1282,8.1354,8.1423,8.1482,8.1533,8.1577,8.1624,8.1577,8.164,8.173,8.1778,8.1874,8.1955,8.2019,8.203,8.1964,8.1954,8.1988,8.2007,8.2017,8.2014,8.1557,8.1944,8.1941,8.1938,8.1936,8.1935,8.1555,8.1641,8.1671,8.1755,8.1783,8.1827,8.1905,8.1901,8.1975,8.2051,8.2017,8.2121,8.2151,8.223,8.2252,8.2332,8.2274,8.2322,8.2335,8.2348,8.2366,8.2005,8.2344,8.2343,8.2342,8.2341,8.234,0,8.1898,8.1914,8.1992,8.2057,8.2124,8.2057,8.2102,8.2162,8.2255,8.229,8.2354,8.2458,8.2538,8.2536,8.261,8.2675,8.2646,8.2696,8.2691,8.2695,8.2413,8.2377,8.2718,8.2718,8.2718,8.2718,8.2718,8.2718,8.2084,8.2226,8.2213,8.2368,8.2382,8.2485,8.2517,8.2558,8.2585,8.2706,8.2773,8.2772,8.2793,8.2868,8.2938,8.2936,8.2967,8.3029,8.3015,8.2752,8.2714,8.2678,8.2644,8.3036,8.3036,8.329,8.3292,8.3294]},{"header":{"parameterUnit":"m.s-1","parameterCategory":1,"la1":30.2991,"la2":30.254,"lo1":-89.0895,"lo2":-89.0444,"dy":0.0017,"dx":0.0017,"nx":28,"ny":28,"refTime":"2023-04-29T21:00:00:Z","depth":0,"parameterNumber":3,"parameterNumberName":"V-component_of_WINDS"},"data":[0,0,0,0,0,0,0,0,0,0,0,0,0,0,0,0,0,0,0,0,0,0,0,0,0,0,0,0,0,0,0,0,0,0,0,0,0,0,0,0,0,0,0,0,0,0,0,0,0,0,0,0,0,0,0,0,0,0,-3.2204,-3.2205,0,-3.2243,-3.2243,-3.2244,-3.2191,-3.2189,-3.2187,-3.2186,-3.2224,-3.2227,-3.2229,0,0,0,0,0,0,0,0,0,0,0,0,0,-3.2085,-3.2087,-3.2204,-3.2205,-3.2205,-3.2243,-3.2243,-3.2244,-3.2191,-3.2189,-3.2187,-3.2185,-3.2223,-3.2226,-3.223,0,0,0,0,0,0,0,0,0,0,0,0,0,-3.2131,-3.2088,-3.2204,-3.2184,-3.2182,-3.2243,-3.2243,-3.2244,-3.2192,-3.2189,-3.2186,-3.2184,-3.2222,-3.2226,-3.223,-3.2312,0,0,-3.2243,-3.2245,0,0,0,0,0,0,0,0,-3.2129,-3.2136,-3.2186,-3.2185,-3.2184,-3.2209,-3.2215,-3.2267,-3.2193,-3.2188,-3.2185,-3.2182,-3.2221,-3.2225,-3.2239,-3.2314,-3.2316,-3.2243,-3.2246,-3.2247,-3.2249,0,0,0,0,0,0,0,-3.2126,-3.2134,-3.222,-3.2187,-3.2185,-3.2172,-3.2176,-3.2225,-3.222,-3.2188,-3.2185,-3.219,-3.222,-3.2235,-3.2239,-3.2316,-3.2243,-3.2247,-3.2249,-3.2251,-3.2462,-3.2465,0,0,0,0,0,0,-3.2125,-3.2131,-3.2218,-3.2221,-3.2149,-3.2177,-3.2181,-3.2204,-3.2219,-3.2219,-3.2192,-3.2187,-3.2229,-3.2234,-3.224,-3.2338,-3.2247,-3.2251,-3.2254,-3.2459,-3.2463,-3.2466,0,0,0,0,0,0,-3.2123,-3.2133,-3.2217,-3.2175,-3.2185,-3.2182,-3.2208,-3.2206,-3.2221,-3.2222,-3.2221,-3.2208,-3.2227,-3.2234,-3.2295,-3.2339,-3.2253,-3.2257,-3.2455,-3.246,-3.2464,-3.2535,0,0,0,0,0,0,-3.2119,-3.2133,-3.2164,-3.2176,-3.2187,-3.2271,-3.2211,-3.2209,-3.2228,-3.2222,-3.2237,-3.2237,-3.2225,-3.2289,-3.2299,-3.2343,-3.226,-3.2451,-3.2457,-3.2463,-3.2528,-3.2541,-3.2552,0,0,0,0,0,-3.2115,-3.2182,-3.2166,-3.2177,-3.2226,-3.2274,-3.228,-3.2266,-3.2232,-3.2264,-3.2265,-3.2236,-3.2333,-3.2296,-3.2307,-3.2352,-3.2449,-3.2456,-3.2463,-3.2523,-3.2539,-3.2552,0,0,0,0,0,0,-3.2174,-3.2183,-3.2165,-3.2238,-3.2256,-3.2265,-3.2304,-3.2283,-3.231,-3.2303,-3.2284,-3.2288,-3.2353,-3.2358,-3.2317,-3.2433,-3.2385,-3.2394,-3.2427,-3.2442,-3.2454,-3.2451,-3.2264,0,0,0,0,0,-3.2195,-3.2233,-3.2239,-3.2302,-3.2312,-3.2307,-3.2327,-3.2315,-3.2332,-3.2339,-3.2345,-3.2363,-3.2397,-3.242,-3.2451,-3.2529,-3.2532,-3.2566,-3.2578,-3.2587,-3.2596,-3.2638,-3.2654,-3.2489,-3.2489,-3.2489,0,0,-3.224,-3.2249,-3.2274,-3.2314,-3.2327,-3.2367,-3.2313,-3.2358,-3.2387,-3.2346,-3.2404,-3.2409,-3.2427,-3.2497,-3.2528,-3.2504,-3.2642,-3.2596,-3.2604,-3.2607,-3.2647,-3.2663,-3.2677,-3.2494,-3.2493,-3.2492,0,0,-3.2341,-3.2352,-3.2407,-3.242,-3.244,-3.2436,-3.2449,-3.2462,-3.2464,-3.2522,-3.2492,-3.2527,-3.2586,-3.2601,-3.2616,-3.2725,-3.27,-3.2736,-3.2797,-3.2839,-3.2852,-3.2863,-3.2903,-3.2917,-3.2744,-3.2744,-3.2744,0,-3.2394,-3.2453,-3.2437,-3.2484,-3.2503,-3.2468,-3.2523,-3.2537,-3.2566,-3.258,-3.2552,-3.2627,-3.2637,-3.271,-3.2737,-3.275,-3.2765,-3.2734,-3.2851,-3.2863,-3.2873,-3.291,-3.2925,-3.2748,-3.2748,-3.2747,-3.2747,0,-3.2517,-3.2559,-3.26,-3.263,-3.2653,-3.2704,-3.2696,-3.2722,-3.2708,-3.2707,-3.2767,-3.2778,-3.2811,-3.2828,-3.2814,-3.2899,-3.2884,-3.2854,-3.2805,-3.2893,-3.2928,-3.2942,-3.2754,-3.2753,-3.2752,-3.2751,0,0,-3.2656,-3.2677,-3.2693,-3.2706,-3.2726,-3.2758,-3.2807,-3.2841,-3.2863,-3.2884,-3.2926,-3.2977,-3.295,-3.2968,-3.2955,-3.2992,-3.3078,-3.2958,-3.2958,-3.298,-3.3174,-3.3197,-3.3213,-3.3062,-3.3065,-3.3067,-3.3173,0,-3.2758,-3.2844,-3.2832,-3.2914,-3.2953,-3.2921,-3.2964,-3.2981,-3.2982,-3.3014,-3.3015,-3.3052,-3.3013,-3.3024,-3.3059,-3.3061,-3.3117,-3.3053,-3.31,-3.3102,-3.3097,-3.3231,-3.3255,-3.3354,-3.3186,-3.3188,-3.319,0,-3.2888,-3.2915,-3.3002,-3.3017,-3.3033,-3.3072,-3.3102,-3.3134,-3.3152,-3.315,-3.3171,-3.3152,-3.3201,-3.3152,-3.322,-3.3177,-3.3195,-3.3199,-3.3203,-3.3207,-3.3152,-3.3239,-3.3386,-3.3401,-3.3211,-3.3209,-3.3208,0,-3.2982,-3.304,-3.31,-3.3112,-3.313,-3.3159,-3.3168,-3.3183,-3.3205,-3.3231,-3.3245,-3.3276,-3.3294,-3.3319,-3.3309,-3.3274,-3.338,-3.3329,-3.338,-3.338,-3.3404,-3.3402,-3.3555,-3.3415,-3.3415,-3.3415,-3.3414,0,-3.3097,-3.3152,-3.3142,-3.3179,-3.3239,-3.3225,-3.3285,-3.329,-3.3304,-3.3341,-3.3315,-3.3351,-3.3336,-3.3371,-3.3363,-3.3422,-3.3429,-3.3429,-3.3427,-3.3432,-3.3432,-3.3444,-3.3437,-3.3419,-3.3418,-3.3417,-3.3416,0,-3.3212,-3.3208,-3.3271,-3.3283,-3.3288,-3.3332,-3.3343,-3.3377,-3.3376,-3.3424,-3.3434,-3.3432,-3.3472,-3.3465,-3.3508,-3.3503,-3.3576,-3.3565,-3.357,-3.3568,-3.3619,-3.3615,-3.3786,-3.3808,-3.3653,-3.3655,-3.3656,0,-3.3286,-3.3328,-3.3345,-3.3369,-3.338,-3.3418,-3.344,-3.3427,-3.3451,-3.3476,-3.3507,-3.3545,-3.3574,-3.3638,-3.3641,-3.3674,-3.3664,-3.3721,-3.3669,-3.3673,-3.3665,-3.3663,-3.3668,-3.3732,-3.3734,-3.3735,-3.3736,0,-3.3419,-3.3415,-3.3448,-3.348,-3.3507,-3.3532,-3.3554,-3.3575,-3.3564,-3.3592,-3.3632,-3.3655,-3.37,-3.3738,-3.3769,-3.3778,-3.3756,-3.3753,-3.3767,-3.3773,-3.3774,-3.3775,-3.36,-3.3749,-3.3748,-3.3747,-3.3746,-3.3746,-3.3516,-3.3552,-3.357,-3.3608,-3.3623,-3.3645,-3.3678,-3.3682,-3.3715,-3.3751,-3.3742,-3.3788,-3.3806,-3.3846,-3.3858,-3.3894,-3.3873,-3.3892,-3.3897,-3.3902,-3.3909,-3.3768,-3.3899,-3.3899,-3.3899,-3.3898,-3.3898,0,-3.3648,-3.3658,-3.3693,-3.3725,-3.3755,-3.3732,-3.3756,-3.3782,-3.3823,-3.3842,-3.3872,-3.3919,-3.3955,-3.3961,-3.3996,-3.4023,-3.4014,-3.4033,-3.4031,-3.4034,-3.3926,-3.3911,-3.404,-3.404,-3.404,-3.404,-3.404,-3.404,-3.372,-3.378,-3.3778,-3.3845,-3.3855,-3.39,-3.3916,-3.3936,-3.3951,-3.4005,-3.4035,-3.4039,-3.4053,-3.4088,-3.4121,-3.4122,-3.4136,-3.4159,-3.4156,-3.4055,-3.4041,-3.4028,-3.4013,-3.4162,-3.4162,-3.4261,-3.4262,-3.4262]}]]